GW4767 Weather Reports


time (UTC)temp
C
wind
direction
speed
KPH
gust
KPH
rain 1hr
cm
rain 24hr
cm
rain mn
cm
humidity
%
barometer
mb
20260505000547 25 306 0.0 0.0 0.00 0.00 0.00 82 1006.0
20260505000046 25 306 0.0 0.0 0.00 0.00 0.00 82 1006.0
20260504235547 25 305 0.0 0.0 0.00 0.00 0.00 82 1006.0
20260504235047 25 305 0.0 1.6 0.00 0.00 0.00 82 1006.0
20260504234546 25 307 0.0 0.0 0.00 0.00 0.00 83 1005.0
20260504234046 25 307 0.0 0.0 0.00 0.00 0.00 83 1005.0
20260504233546 25 307 1.6 1.6 0.00 0.00 0.00 83 1005.0
20260504233047 25 307 1.6 3.2 0.00 0.00 0.00 83 1005.0
20260504232546 25 308 0.0 1.6 0.00 0.00 0.00 82 1005.0
20260504232047 25 307 0.0 0.0 0.00 0.00 0.00 82 1005.0
20260504231546 25 305 1.6 3.2 0.00 0.00 0.00 82 1005.0
20260504231055 25 305 1.6 3.2 0.00 0.00 0.00 82 1005.0
20260504230546 25 309 1.6 1.6 0.00 0.00 0.00 81 1005.0
20260504230047 25 308 0.0 1.6 0.00 0.00 0.00 81 1005.0
20260504225546 25 304 0.0 0.0 0.00 0.00 0.00 81 1005.0
20260504225048 25 307 0.0 0.0 0.00 0.00 0.00 81 1005.0
20260504224546 25 301 3.2 3.2 0.00 0.00 0.00 80 1005.0
20260504224047 25 304 0.0 1.6 0.00 0.00 0.00 80 1005.0
20260504223546 25 307 0.0 0.0 0.00 0.00 0.00 81 1005.0
20260504222557 25 308 0.0 0.0 0.00 0.00 0.00 81 1005.0
20260504222047 25 305 0.0 1.6 0.00 0.00 0.00 80 1005.0
20260504221547 25 309 0.0 0.0 0.00 0.00 0.00 80 1005.0
20260504221047 25 309 0.0 0.0 0.00 0.00 0.00 80 1005.0
20260504220547 25 308 0.0 0.0 0.00 0.00 0.00 80 1005.0
20260504220048 25 310 0.0 0.0 0.00 0.00 0.00 81 1005.0
20260504215546 25 310 0.0 0.0 0.00 0.00 0.00 81 1005.0
20260504215046 25 309 0.0 0.0 0.00 0.00 0.00 81 1005.0
20260504214546 25 309 0.0 0.0 0.00 0.00 0.00 81 1005.0
20260504214046 25 309 0.0 0.0 0.00 0.00 0.00 81 1005.0
20260504213547 25 309 0.0 0.0 0.00 0.00 0.00 80 1005.0
20260504213048 25 309 0.0 1.6 0.00 0.00 0.00 80 1005.0
20260504212548 25 310 0.0 0.0 0.00 0.00 0.00 80 1006.0
20260504212047 25 310 0.0 0.0 0.00 0.00 0.00 80 1006.0
20260504211548 25 310 0.0 0.0 0.00 0.00 0.00 80 1006.0
20260504211048 25 310 0.0 0.0 0.00 0.00 0.00 79 1006.0
20260504210547 25 310 0.0 0.0 0.00 0.00 0.00 79 1006.0
20260504210049 25 310 0.0 0.0 0.00 0.00 0.00 79 1006.0
20260504205547 25 310 0.0 0.0 0.00 0.00 0.00 79 1006.0
20260504205047 25 311 0.0 0.0 0.00 0.00 0.00 79 1006.0
20260504204546 25 311 0.0 0.0 0.00 0.00 0.00 79 1006.0
20260504204047 25 311 0.0 0.0 0.00 0.00 0.00 79 1006.0
20260504203547 25 311 0.0 0.0 0.00 0.00 0.00 79 1007.0
20260504203047 25 310 0.0 0.0 0.00 0.00 0.00 79 1007.0
20260504202547 25 310 0.0 0.0 0.00 0.00 0.00 79 1007.0
20260504202048 25 308 0.0 0.0 0.00 0.00 0.00 78 1007.0
20260504201546 25 309 0.0 0.0 0.00 0.00 0.00 78 1006.0
20260504201048 25 309 0.0 0.0 0.00 0.00 0.00 78 1006.0
20260504200546 25 309 0.0 0.0 0.00 0.00 0.00 77 1006.0
20260504200048 25 307 0.0 1.6 0.00 0.00 0.00 77 1007.0
20260504195556 25 304 6.4 9.7 0.00 0.00 0.00 76 1007.0
20260504195047 26 310 1.6 1.6 0.00 0.00 0.00 77 1007.0
20260504194547 26 312 1.6 1.6 0.00 0.00 0.00 77 1007.0
20260504194046 26 319 0.0 1.6 0.00 0.00 0.00 76 1007.0
20260504193546 26 307 0.0 1.6 0.00 0.00 0.00 76 1007.0
20260504193046 26 313 1.6 1.6 0.00 0.00 0.00 76 1007.0
20260504192546 26 311 0.0 1.6 0.00 0.00 0.00 76 1007.0
20260504192046 26 309 1.6 1.6 0.00 0.00 0.00 76 1007.0
20260504191546 26 311 1.6 1.6 0.00 0.00 0.00 76 1007.0
20260504191048 26 308 1.6 1.6 0.00 0.00 0.00 75 1008.0
20260504190546 26 310 3.2 3.2 0.00 0.00 0.00 76 1008.0
20260504190048 26 315 1.6 1.6 0.00 0.00 0.00 75 1008.0
20260504185546 26 308 1.6 1.6 0.00 0.00 0.00 75 1008.0
20260504185046 26 306 1.6 3.2 0.00 0.00 0.00 75 1008.0
20260504184546 26 308 1.6 1.6 0.00 0.00 0.00 76 1008.0
20260504184047 26 303 4.8 8.0 0.00 0.00 0.00 77 1008.0
20260504183547 26 307 1.6 1.6 0.00 0.00 0.00 77 1008.0
20260504183047 26 314 3.2 8.0 0.00 0.00 0.00 76 1008.0
20260504182550 26 307 1.6 1.6 0.00 0.00 0.00 76 1007.0
20260504182047 26 308 1.6 3.2 0.00 0.00 0.00 76 1007.0
20260504181546 26 311 1.6 3.2 0.00 0.00 0.00 76 1007.0
20260504181048 26 312 1.6 1.6 0.00 0.00 0.00 76 1007.0
20260504180546 26 314 0.0 1.6 0.00 0.00 0.00 76 1007.0
20260504180048 26 311 3.2 4.8 0.00 0.00 0.00 76 1007.0
20260504175546 26 311 1.6 3.2 0.00 0.00 0.00 75 1007.0
20260504175046 26 310 1.6 3.2 0.00 0.00 0.00 74 1007.0
20260504174548 27 308 4.8 8.0 0.00 0.00 0.00 72 1007.0
20260504174046 27 318 4.8 8.0 0.00 0.00 0.00 71 1007.0
20260504173547 28 243 4.8 4.8 0.00 0.00 0.00 71 1007.0
20260504173046 28 314 4.8 4.8 0.00 0.00 0.00 72 1007.0
20260504172546 28 312 0.0 0.0 0.00 0.00 0.00 71 1008.0
20260504172047 29 323 3.2 8.0 0.00 0.00 0.00 69 1008.0
20260504171546 30 311 3.2 4.8 0.00 0.00 0.00 71 1007.0
20260504171048 30 312 1.6 1.6 0.00 0.00 0.00 75 1008.0
20260504170547 30 308 1.6 1.6 0.00 0.00 0.00 77 1007.0
20260504151047 30 259 4.8 8.0 0.00 0.00 0.00 78 1006.0
20260504150546 31 291 1.6 3.2 0.00 0.00 0.00 78 1006.0
20260504141047 31 307 1.6 3.2 0.00 0.00 0.00 77 1005.0
20260504140548 31 273 1.6 3.2 0.00 0.00 0.00 76 1005.0
20260504130548 32 264 4.8 4.8 0.00 0.00 0.00 71 1003.0
20260504110548 36 310 0.0 0.0 0.00 0.00 0.00 55 1003.0
20260504100547 37 251 0.0 0.0 0.00 0.00 0.00 54 1003.0
20260504081547 37 312 3.2 3.2 0.00 0.00 0.00 55 1004.0
20260504081049 37 268 4.8 8.0 0.00 0.00 0.00 53 1005.0
20260504080546 38 300 0.0 0.0 0.00 0.00 0.00 52 1005.0
20260504050546 35 318 0.0 1.6 0.00 0.00 0.00 55 1007.0
20260504045547 33 315 0.0 0.0 0.00 0.00 0.00 57 1008.0
20260504045046 33 312 0.0 0.0 0.00 0.00 0.00 57 1008.0
20260504044547 33 309 0.0 0.0 0.00 0.00 0.00 56 1007.0
20260504044046 33 310 1.6 1.6 0.00 0.00 0.00 57 1008.0
20260504043547 33 302 1.6 1.6 0.00 0.00 0.00 58 1007.0
20260504043047 33 313 1.6 3.2 0.00 0.00 0.00 58 1008.0
20260504042548 32 302 4.8 8.0 0.00 0.00 0.00 58 1008.0
20260504042048 32 310 0.0 0.0 0.00 0.00 0.00 58 1008.0
20260504041547 32 310 0.0 0.0 0.00 0.00 0.00 58 1008.0
20260504041046 32 313 1.6 1.6 0.00 0.00 0.00 59 1008.0
20260504040547 32 306 1.6 3.2 0.00 0.00 0.00 57 1008.0
20260504040047 32 313 1.6 3.2 0.00 0.00 0.00 61 1007.0
20260504035546 32 313 1.6 1.6 0.00 0.00 0.00 60 1007.0
20260504035047 32 311 4.8 8.0 0.00 0.00 0.00 60 1007.0
20260504034547 32 308 3.2 4.8 0.00 0.00 0.00 60 1007.0
20260504034047 32 311 0.0 0.0 0.00 0.00 0.00 63 1008.0
20260504033547 31 313 1.6 3.2 0.00 0.00 0.00 62 1007.0
20260504033046 31 311 3.2 4.8 0.00 0.00 0.00 63 1007.0
20260504032547 31 309 0.0 1.6 0.00 0.00 0.00 64 1008.0
20260504032046 31 313 1.6 3.2 0.00 0.00 0.00 65 1007.0
20260504031547 30 308 3.2 4.8 0.00 0.00 0.00 65 1007.0
20260504031048 30 307 0.0 0.0 0.00 0.00 0.00 67 1007.0
20260504030546 30 311 0.0 1.6 0.00 0.00 0.00 66 1007.0
20260504030046 30 308 0.0 0.0 0.00 0.00 0.00 66 1007.0
20260504025546 31 310 1.6 1.6 0.00 0.00 0.00 65 1007.0
20260504025046 30 311 0.0 0.0 0.00 0.00 0.00 67 1007.0
20260504024547 30 308 3.2 4.8 0.00 0.00 0.00 66 1007.0
20260504024048 30 309 1.6 1.6 0.00 0.00 0.00 67 1007.0
20260504023547 30 313 0.0 0.0 0.00 0.00 0.00 69 1007.0
20260504023046 30 311 0.0 0.0 0.00 0.00 0.00 70 1007.0
20260504022546 29 315 0.0 1.6 0.00 0.00 0.00 71 1007.0
20260504022046 29 311 1.6 1.6 0.00 0.00 0.00 71 1007.0
20260504021546 29 309 0.0 1.6 0.00 0.00 0.00 71 1007.0
20260504021047 29 309 0.0 0.0 0.00 0.00 0.00 72 1007.0
20260504020546 28 309 0.0 0.0 0.00 0.00 0.00 73 1007.0
20260504020046 27 310 0.0 0.0 0.00 0.00 0.00 75 1007.0
20260504015546 27 309 0.0 0.0 0.00 0.00 0.00 76 1006.0
20260504015046 27 309 0.0 0.0 0.00 0.00 0.00 76 1006.0
20260504014546 27 310 0.0 0.0 0.00 0.00 0.00 78 1006.0
20260504014048 27 310 0.0 0.0 0.00 0.00 0.00 79 1006.0
20260504013546 26 310 0.0 0.0 0.00 0.00 0.00 79 1006.0
20260504013047 26 310 0.0 0.0 0.00 0.00 0.00 79 1006.0
20260504012547 26 310 0.0 0.0 0.00 0.00 0.00 79 1006.0
20260504012046 26 310 0.0 0.0 0.00 0.00 0.00 79 1006.0
20260504011546 26 311 0.0 0.0 0.00 0.00 0.00 80 1006.0
20260504011046 26 311 0.0 0.0 0.00 0.00 0.00 81 1006.0
20260504010547 26 311 0.0 0.0 0.00 0.00 0.00 80 1006.0
20260504010047 26 310 0.0 0.0 0.00 0.00 0.00 81 1005.0
20260504005547 26 310 0.0 0.0 0.00 0.00 0.00 80 1005.0
20260504005047 26 310 0.0 0.0 0.00 0.00 0.00 80 1005.0
20260504004546 26 310 0.0 0.0 0.00 0.00 0.00 80 1005.0
20260504004046 26 310 0.0 0.0 0.00 0.00 0.00 79 1005.0
20260504003547 26 310 0.0 0.0 0.00 0.00 0.00 79 1005.0
20260504003046 26 310 0.0 0.0 0.00 0.00 0.00 78 1005.0
20260504002546 26 310 0.0 0.0 0.00 0.00 0.00 77 1005.0
20260504002047 26 310 0.0 0.0 0.00 0.00 0.00 77 1005.0
20260504001546 26 310 0.0 0.0 0.00 0.00 0.00 76 1005.0
20260504001046 26 310 0.0 0.0 0.00 0.00 0.00 76 1005.0